Miscellaneous Local Product
Issued by NWS Hastings, NE

Home | Current Version | Previous Version | Graphics & Text | Print | Product List | Glossary On
Versions: 1 2 3 4 5 6 7 8 9 10 11 12 13 14 15 16 17 18 19 20 21 22 23 24 25 26 27 28 29 30 31 32 33 34 35 36 37 38 39 40 41 42 43 44 45 46 47 48 49 50
000
AXUS43 KGID 301102
MISGRI

GID CWA HOURLY WEATHER ROUNDUP
NATIONAL WEATHER SERVICE HASTINGS NE
600 AM CDT TUE SEP 30 2014

NOTE: "FAIR" INDICATES FEW OR NO CLOUDS BELOW 12,000 FEET WITH NO
SIGNIFICANT WEATHER AND/OR OBSTRUCTIONS TO VISIBILITY.

...SOUTH CENTRAL NEBRASKA...

CITY           SKY/WX    TMP DP  RH WIND       PRES   REMARKS
GRAND ISLAND   LGT RAIN  67  58  72 S20G26    29.81S
HASTINGS       CLOUDY    65  57  75 S12       29.80F
KEARNEY        CLOUDY    64  57  77 S22G29    29.79R
ORD            CLOUDY    65  58  78 SE10      29.73F
YORK           CLOUDY    66  59  77 S10G17    29.85R
AURORA         LGT RAIN  64  60  84 S18G25    29.82S
LEXINGTON      CLOUDY    62  59  88 SW15      29.78S
HOLDREGE       CLOUDY    64  56  75 S15G22    29.78F
HEBRON         CLOUDY    67  56  67 S10G16    29.84S

...NEBRASKA PANHANDLE...

CITY           SKY/WX    TMP DP  RH WIND       PRES   REMARKS
CHADRON        LGT RAIN  51  49  92 W35G48    29.43F
ALLIANCE       LGT RAIN  49  47  93 SW18      29.65
SCOTTSBLUFF    LGT RAIN  51  49  92 W13       29.68S
SIDNEY         CLOUDY    50  46  86 SW15      29.78R

...WESTERN AND NORTH CENTRAL NEBRASKA...

CITY           SKY/WX    TMP DP  RH WIND       PRES   REMARKS
VALENTINE      CLEAR     60  55  83 SE21G28   29.63F
AINSWORTH      CLOUDY    62  55  79 S17G23    29.69S
ONEILL         TSTM      64  61  91 SE13G23   29.75F
BROKEN BOW     CLOUDY    63  58  83 S16G24    29.74S
IMPERIAL       PTCLDY    51  46  83 SW8       29.81R
NORTH PLATTE   CLEAR     54  49  83 SW12      29.77R
MCCOOK         CLEAR     54  49  83 W13       29.81S

...EASTERN NEBRASKA...

CITY           SKY/WX    TMP DP  RH WIND       PRES   REMARKS
NORFOLK        CLOUDY    62  59  90 SE13      29.83F
SO SIOUX CITY  MOCLDY    58  55  90 E10       29.89S
TEKAMAH        CLOUDY    61  58  90 E7        29.88S FOG
COLUMBUS       CLOUDY    64  57  77 SE8       29.84F
ALBION         CLOUDY    63  59  86 SE12      29.79F
OMAHA EPPLEY   CLOUDY    64  58  80 SE6       29.90R
OFFUTT AFB     CLOUDY    64  63  99 E5        29.89S
MILLARD        CLOUDY    64  59  85 SE5       29.88F
LINCOLN        MOCLDY    67  58  72 S15       29.85F
NEBRASKA CITY  CLOUDY    62  59  92 S6        29.89F
BEATRICE       CLOUDY    68  59  73 S12       29.87F
FALLS CITY     CLOUDY    61  58  90 S5        29.90R

...NORTHERN KANSAS...

CITY           SKY/WX    TMP DP  RH WIND       PRES   REMARKS
GOODLAND       MOCLDY    48  45  89 SW7       29.86F
HILL CITY      PTCLDY    64  59  83 SW8       29.83R
NORTON         SUNNY     57  48  72 SW9       29.82R
PHILLIPSBURG   MOCLDY    64  57  77 S9        29.82R
SMITH CENTER   RAIN      66  57  72 S16G25    29.82S
BELOIT         CLOUDY    68  55  64 S9        29.83S
HAYS           CLOUDY    63  55  77 S10       29.86R
RUSSELL        RAIN      64  58  80 S13       29.85S
CONCORDIA      MOCLDY    68  58  70 S17G25    29.84F
SALINA         MOCLDY    68  58  70 S8        29.87F
TOPEKA         PTCLDY    62  59  90 CALM      29.91S



USA.gov is the U.S. government's official web portal to all federal, state and local government web resources and services.